Time,TemperatureF,DewpointF,PressureIn,WindDirection,WindDirectionDegrees,WindSpeedMPH,WindSpeedGustMPH,Humidity,HourlyPrecipIn,Conditions,Clouds,dailyrainin,SolarRadiationWatts/m^2,SoftwareType,DateUTC
2013-05-08 00:02:00,71.0,49.0,-100.00,SE,144,7.0,14.0,46,0.00,,,0.00,0.000000,,2013-05-08 05:02:00,
2013-05-08 00:12:00,71.0,49.0,-100.00,SE,144,7.0,14.0,46,0.00,,,0.00,0.000000,,2013-05-08 05:12:00,
2013-05-08 00:22:00,71.0,49.0,-100.00,SE,144,7.0,14.0,46,0.00,,,0.00,0.000000,,2013-05-08 05:22:00,
2013-05-08 00:32:00,71.0,49.0,-100.00,SE,144,7.0,14.0,46,0.00,,,0.00,0.000000,,2013-05-08 05:32:00,
2013-05-08 01:01:00,68.0,52.0,-100.00,SSE,151,9.0,13.0,57,0.00,,,0.00,0.000000,,2013-05-08 06:01:00,
2013-05-08 01:12:00,68.0,52.0,-100.00,SSE,151,9.0,13.0,57,0.00,,,0.00,0.000000,,2013-05-08 06:12:00,
2013-05-08 01:21:00,68.0,52.0,-100.00,SSE,151,9.0,13.0,57,0.00,,,0.00,0.000000,,2013-05-08 06:21:00,
2013-05-08 01:32:00,68.0,52.0,-100.00,SSE,151,9.0,13.0,57,0.00,,,0.00,0.000000,,2013-05-08 06:32:00,
2013-05-08 02:02:00,64.0,56.0,-100.00,SSE,151,11.0,17.0,75,0.05,,,0.05,0.000000,,2013-05-08 07:02:00,
2013-05-08 02:11:00,64.0,56.0,-100.00,SSE,151,11.0,17.0,75,0.05,,,0.05,0.000000,,2013-05-08 07:11:00,
2013-05-08 02:21:00,64.0,56.0,-100.00,SSE,151,11.0,17.0,75,0.05,,,0.05,0.000000,,2013-05-08 07:21:00,
2013-05-08 02:32:00,64.0,56.0,-100.00,SSE,151,11.0,17.0,75,0.05,,,0.05,0.000000,,2013-05-08 07:32:00,
2013-05-08 03:01:00,63.0,57.0,-100.00,South,173,7.0,17.0,80,0.00,,,0.05,0.000000,,2013-05-08 08:01:00,
2013-05-08 03:12:00,63.0,57.0,-100.00,South,173,7.0,17.0,80,0.00,,,0.05,0.000000,,2013-05-08 08:12:00,
2013-05-08 03:21:00,63.0,57.0,-100.00,South,173,7.0,17.0,80,0.00,,,0.05,0.000000,,2013-05-08 08:21:00,
2013-05-08 03:32:00,63.0,57.0,-100.00,South,173,7.0,17.0,80,0.00,,,0.05,0.000000,,2013-05-08 08:32:00,
2013-05-08 04:02:00,62.0,56.0,-100.00,South,170,8.0,13.0,82,0.00,,,0.05,0.000000,,2013-05-08 09:02:00,
2013-05-08 04:11:00,62.0,56.0,-100.00,South,170,8.0,13.0,82,0.00,,,0.05,0.000000,,2013-05-08 09:11:00,
2013-05-08 04:21:00,62.0,56.0,-100.00,South,170,8.0,13.0,82,0.00,,,0.05,0.000000,,2013-05-08 09:21:00,
2013-05-08 04:32:00,62.0,56.0,-100.00,South,170,8.0,13.0,82,0.00,,,0.05,0.000000,,2013-05-08 09:32:00,
2013-05-08 05:02:00,61.0,57.0,-100.00,South,174,10.0,16.0,87,0.00,,,0.05,0.000000,,2013-05-08 10:02:00,
2013-05-08 05:12:00,61.0,57.0,-100.00,South,174,10.0,16.0,87,0.00,,,0.05,0.000000,,2013-05-08 10:12:00,
2013-05-08 05:22:00,61.0,57.0,-100.00,South,174,10.0,16.0,87,0.00,,,0.05,0.000000,,2013-05-08 10:22:00,
2013-05-08 05:33:00,61.0,57.0,-100.00,South,174,10.0,16.0,87,0.00,,,0.05,0.000000,,2013-05-08 10:33:00,
2013-05-08 06:02:00,60.0,58.0,-100.00,South,183,9.0,15.0,93,0.00,,,0.05,0.000000,,2013-05-08 11:02:00,
2013-05-08 06:11:00,60.0,58.0,-100.00,South,183,9.0,15.0,93,0.00,,,0.05,0.000000,,2013-05-08 11:11:00,
2013-05-08 06:22:00,60.0,58.0,-100.00,South,183,9.0,15.0,93,0.00,,,0.05,0.000000,,2013-05-08 11:22:00,
2013-05-08 06:32:00,60.0,58.0,-100.00,South,183,9.0,15.0,93,0.00,,,0.05,0.000000,,2013-05-08 11:32:00,
2013-05-08 07:01:00,62.0,60.0,-100.00,South,176,10.0,15.0,92,0.00,,,0.05,0.000000,,2013-05-08 12:01:00,
2013-05-08 07:11:00,62.0,60.0,-100.00,South,176,10.0,15.0,92,0.00,,,0.05,0.000000,,2013-05-08 12:11:00,
2013-05-08 07:21:00,62.0,60.0,-100.00,South,176,10.0,15.0,92,0.00,,,0.05,0.000000,,2013-05-08 12:21:00,
2013-05-08 07:32:00,62.0,60.0,-100.00,South,176,10.0,15.0,92,0.00,,,0.05,0.000000,,2013-05-08 12:32:00,
2013-05-08 08:01:00,63.0,60.0,-100.00,South,188,12.0,20.0,91,0.00,,,0.05,11.000000,,2013-05-08 13:01:00,
2013-05-08 08:11:00,63.0,60.0,-100.00,South,188,12.0,20.0,91,0.00,,,0.05,11.000000,,2013-05-08 13:11:00,
2013-05-08 08:21:00,63.0,60.0,-100.00,South,188,12.0,20.0,91,0.00,,,0.05,11.000000,,2013-05-08 13:21:00,
2013-05-08 08:32:00,63.0,60.0,-100.00,South,188,12.0,20.0,91,0.00,,,0.05,11.000000,,2013-05-08 13:32:00,
2013-05-08 09:02:00,64.0,61.0,-100.00,South,180,11.0,21.0,89,0.00,,,0.05,43.000000,,2013-05-08 14:02:00,
2013-05-08 09:11:00,64.0,61.0,-100.00,South,180,11.0,21.0,89,0.00,,,0.05,43.000000,,2013-05-08 14:11:00,
2013-05-08 09:21:00,64.0,61.0,-100.00,South,180,11.0,21.0,89,0.00,,,0.05,43.000000,,2013-05-08 14:21:00,
2013-05-08 09:32:00,64.0,61.0,-100.00,South,180,11.0,21.0,89,0.00,,,0.05,43.000000,,2013-05-08 14:32:00,
2013-05-08 10:02:00,65.0,61.0,-100.00,South,179,10.0,17.0,86,0.00,,,0.05,84.000000,,2013-05-08 15:02:00,
2013-05-08 10:11:00,65.0,61.0,-100.00,South,179,10.0,17.0,86,0.00,,,0.05,84.000000,,2013-05-08 15:11:00,
2013-05-08 10:21:00,65.0,61.0,-100.00,South,179,10.0,17.0,86,0.00,,,0.05,84.000000,,2013-05-08 15:21:00,
2013-05-08 10:33:00,65.0,61.0,-100.00,South,179,10.0,17.0,86,0.00,,,0.05,84.000000,,2013-05-08 15:33:00,
2013-05-08 11:03:00,67.0,62.0,-100.00,South,174,12.0,20.0,83,0.00,,,-99.99,122.000000,,2013-05-08 16:03:00,
2013-05-08 11:12:00,67.0,62.0,-100.00,South,174,12.0,20.0,83,0.00,,,-99.99,122.000000,,2013-05-08 16:12:00,
2013-05-08 11:23:00,67.0,62.0,-100.00,South,174,12.0,20.0,83,0.00,,,-99.99,122.000000,,2013-05-08 16:23:00,
2013-05-08 11:33:00,67.0,62.0,-100.00,South,174,12.0,20.0,83,0.00,,,-99.99,122.000000,,2013-05-08 16:33:00,
2013-05-08 12:02:00,73.0,62.0,-100.00,South,169,13.0,21.0,69,0.00,,,-99.99,374.000000,,2013-05-08 17:02:00,
2013-05-08 12:12:00,73.0,62.0,-100.00,South,169,13.0,21.0,69,0.00,,,-99.99,374.000000,,2013-05-08 17:12:00,
2013-05-08 12:22:00,73.0,62.0,-100.00,South,169,13.0,21.0,69,0.00,,,-99.99,374.000000,,2013-05-08 17:22:00,
2013-05-08 12:31:00,73.0,62.0,-100.00,South,169,13.0,21.0,69,0.00,,,-99.99,374.000000,,2013-05-08 17:31:00,
2013-05-08 13:02:00,75.0,61.0,-100.00,SSE,167,13.0,22.0,61,0.00,,,0.05,565.000000,,2013-05-08 18:02:00,
2013-05-08 13:12:00,75.0,61.0,-100.00,SSE,167,13.0,22.0,61,0.00,,,0.05,565.000000,,2013-05-08 18:12:00,
2013-05-08 13:21:00,75.0,61.0,-100.00,SSE,167,13.0,22.0,61,0.00,,,0.05,565.000000,,2013-05-08 18:21:00,
2013-05-08 13:31:00,75.0,61.0,-100.00,SSE,167,13.0,22.0,61,0.00,,,0.05,565.000000,,2013-05-08 18:31:00,
2013-05-08 14:01:00,78.0,59.0,-100.00,South,176,14.0,22.0,53,0.00,,,0.05,554.000000,,2013-05-08 19:01:00,
2013-05-08 14:11:00,78.0,59.0,-100.00,South,176,14.0,22.0,53,0.00,,,0.05,554.000000,,2013-05-08 19:11:00,
2013-05-08 14:21:00,78.0,59.0,-100.00,South,176,14.0,22.0,53,0.00,,,0.05,554.000000,,2013-05-08 19:21:00,
2013-05-08 14:32:00,78.0,59.0,-100.00,South,176,14.0,22.0,53,0.00,,,0.05,554.000000,,2013-05-08 19:32:00,
2013-05-08 15:02:00,78.0,60.0,-100.00,SSE,148,12.0,22.0,54,0.00,,,0.05,500.000000,,2013-05-08 20:02:00,
2013-05-08 15:11:00,78.0,60.0,-100.00,SSE,148,12.0,22.0,54,0.00,,,0.05,500.000000,,2013-05-08 20:11:00,
2013-05-08 15:22:00,78.0,60.0,-100.00,SSE,148,12.0,22.0,54,0.00,,,0.05,500.000000,,2013-05-08 20:22:00,
2013-05-08 15:32:00,78.0,60.0,-100.00,SSE,148,12.0,22.0,54,0.00,,,0.05,500.000000,,2013-05-08 20:32:00,
2013-05-08 16:01:00,78.0,60.0,-100.00,South,187,16.0,23.0,54,0.00,,,0.05,455.000000,,2013-05-08 21:01:00,
2013-05-08 16:12:00,78.0,60.0,-100.00,South,187,16.0,23.0,54,0.00,,,0.05,455.000000,,2013-05-08 21:12:00,
2013-05-08 16:21:00,78.0,60.0,-100.00,South,187,16.0,23.0,54,0.00,,,0.05,455.000000,,2013-05-08 21:21:00,
2013-05-08 16:33:00,78.0,60.0,-100.00,South,187,16.0,23.0,54,0.00,,,0.05,455.000000,,2013-05-08 21:33:00,
2013-05-08 17:03:00,78.0,61.0,-100.00,SSW,202,15.0,24.0,55,0.00,,,0.05,485.000000,,2013-05-08 22:03:00,
2013-05-08 17:12:00,78.0,61.0,-100.00,SSW,202,15.0,24.0,55,0.00,,,0.05,485.000000,,2013-05-08 22:12:00,
2013-05-08 17:22:00,78.0,61.0,-100.00,SSW,202,15.0,24.0,55,0.00,,,0.05,485.000000,,2013-05-08 22:22:00,
2013-05-08 17:33:00,78.0,61.0,-100.00,SSW,202,15.0,24.0,55,0.00,,,0.05,485.000000,,2013-05-08 22:33:00,
2013-05-08 18:01:00,79.0,61.0,-100.00,SSE,162,9.0,21.0,54,0.00,,,0.05,384.000000,,2013-05-08 23:01:00,
2013-05-08 18:11:00,79.0,61.0,-100.00,SSE,162,9.0,21.0,54,0.00,,,0.05,384.000000,,2013-05-08 23:11:00,
2013-05-08 18:22:00,79.0,61.0,-100.00,SSE,162,9.0,21.0,54,0.00,,,0.05,384.000000,,2013-05-08 23:22:00,
2013-05-08 18:32:00,79.0,61.0,-100.00,SSE,162,9.0,21.0,54,0.00,,,0.05,384.000000,,2013-05-08 23:32:00,
2013-05-08 19:02:00,80.0,60.0,-100.00,SSE,153,11.0,18.0,50,0.00,,,0.05,285.000000,,2013-05-09 00:02:00,
2013-05-08 19:12:00,80.0,60.0,-100.00,SSE,153,11.0,18.0,50,0.00,,,0.05,285.000000,,2013-05-09 00:12:00,
2013-05-08 19:21:00,80.0,60.0,-100.00,SSE,153,11.0,18.0,50,0.00,,,0.05,285.000000,,2013-05-09 00:21:00,
2013-05-08 19:32:00,80.0,60.0,-100.00,SSE,153,11.0,18.0,50,0.00,,,0.05,285.000000,,2013-05-09 00:32:00,
2013-05-08 20:01:00,78.0,59.0,-100.00,SSE,162,12.0,21.0,53,0.00,,,0.05,100.000000,,2013-05-09 01:01:00,
2013-05-08 20:11:00,78.0,59.0,-100.00,SSE,162,12.0,21.0,53,0.00,,,0.05,100.000000,,2013-05-09 01:11:00,
2013-05-08 20:22:00,78.0,59.0,-100.00,SSE,162,12.0,21.0,53,0.00,,,0.05,100.000000,,2013-05-09 01:22:00,
2013-05-08 20:32:00,78.0,59.0,-100.00,SSE,162,12.0,21.0,53,0.00,,,0.05,100.000000,,2013-05-09 01:32:00,
2013-05-08 21:02:00,75.0,59.0,-100.00,SE,144,7.0,18.0,57,0.00,,,0.05,19.000000,,2013-05-09 02:02:00,
2013-05-08 21:11:00,75.0,59.0,-100.00,SE,144,7.0,18.0,57,0.00,,,0.05,19.000000,,2013-05-09 02:11:00,
2013-05-08 21:22:00,75.0,59.0,-100.00,SE,144,7.0,18.0,57,0.00,,,0.05,19.000000,,2013-05-09 02:22:00,
2013-05-08 21:32:00,75.0,59.0,-100.00,SE,144,7.0,18.0,57,0.00,,,0.05,19.000000,,2013-05-09 02:32:00,
2013-05-08 22:01:00,73.0,59.0,-100.00,SE,139,6.0,14.0,61,0.00,,,0.05,0.000000,,2013-05-09 03:01:00,
2013-05-08 22:11:00,73.0,59.0,-100.00,SE,139,6.0,14.0,61,0.00,,,0.05,0.000000,,2013-05-09 03:11:00,
2013-05-08 22:21:00,73.0,59.0,-100.00,SE,139,6.0,14.0,61,0.00,,,0.05,0.000000,,2013-05-09 03:21:00,
2013-05-08 22:33:00,73.0,59.0,-100.00,SE,139,6.0,14.0,61,0.00,,,0.05,0.000000,,2013-05-09 03:33:00,
2013-05-08 23:03:00,71.0,55.0,-100.00,SSE,150,13.0,23.0,58,0.00,,,0.05,0.000000,,2013-05-09 04:03:00,
2013-05-08 23:12:00,71.0,55.0,-100.00,SSE,150,13.0,23.0,58,0.00,,,0.05,0.000000,,2013-05-09 04:12:00,
2013-05-08 23:23:00,71.0,55.0,-100.00,SSE,150,13.0,23.0,58,0.00,,,0.05,0.000000,,2013-05-09 04:23:00,
2013-05-08 23:33:00,71.0,55.0,-100.00,SSE,150,13.0,23.0,58,0.00,,,0.05,0.000000,,2013-05-09 04:33:00,